Lewistown, MT

6:09 AM MDT on August 19, 2017 (GMT -0600)
Lewistown Municipal

Weather History for KLWT - January, 2013

Change the Weather History Date:

Tuesday, January 29, 2013

  Actual Average Record
Temperature  
Mean Temperature 10 °F 24 °F  
Max Temperature 27 °F 35 °F 64 °F (1931)
Min Temperature -8 °F 14 °F -40 °F (1929)
Degree Days  
Heating Degree Days 55 41  
Month to date heating degree days 1124 1201  
Since 1 July heating degree days 4328 4623  
Cooling Degree Days 0 0  
Month to date cooling degree days 0 0  
Year to date cooling degree days 0 0  
Moisture  
Dew Point 6 °F    
Average Humidity 80    
Maximum Humidity 96    
Minimum Humidity 63    
Precipitation  
Precipitation 0.04 in 0.02 in 0.41 in (1965)
Month to date precipitation 0.80 0.54  
Year to date precipitation 0.80 0.54  
Snow  
Snow 0.00 in - - ()
Snow Depth T in    
Sea Level Pressure  
Sea Level Pressure 29.95 in    
Wind  
Wind Speed 10 mph (WNW)    
Max Wind Speed 24 mph    
Max Gust Speed 30 mph    
Visibility 4 miles    
Events Fog , Snow    
T = Trace of Precipitation, MM = Missing Value Source: NWS Daily Summary

Daily Weather History Graph

Daily Weather History Graph

Search for Another Location

Airport or City:

Trip Planner

Search our weather history database for the weather conditions in past years. The results will help you decide how hot, cold, wet, or windy it might be!

Date:

Astronomy

Jan. 29, 2013 Rise Set
Actual Time 7:46 AM MST 5:16 PM MST
Civil Twilight 7:13 AM MST 5:49 PM MST
Nautical Twilight 6:36 AM MST 6:26 PM MST
Astronomical Twilight 6:00 AM MST 7:02 PM MST
Moon 8:31 PM MST (1/29) 8:31 AM MST (1/29)
Length of Visible Light 10h 36m
Length of Day
9h 30m
Waning Gibbous, 93% of the Moon is Illuminated
Jan 29
Waning Gibbous
Feb 3
Last Quarter
Feb 10
New
Feb 17
First Quarter
Feb 25
Full

Hourly Weather History & Observations

Time (MST) Temp. Windchill Dew Point Humidity Pressure Visibility Wind Dir Wind Speed Gust Speed Precip Events Conditions
12:54 AM 26.1 °F 16.8 °F 16.0 °F 66% 29.73 in 10.0 mi West 9.2 mph - N/A   Overcast
1:28 AM 24.8 °F 19.1 °F 17.6 °F 74% 29.64 in 4.0 mi West 4.6 mph - 0.00 in Snow Light Snow
1:45 AM 24.8 °F 19.1 °F 17.6 °F 74% 29.64 in 1.8 mi WNW 4.6 mph - 0.00 in Snow Light Snow
1:54 AM 24.1 °F 17.0 °F 19.9 °F 84% 29.73 in 1.0 mi WNW 5.8 mph - 0.01 in Snow Light Snow
2:01 AM 23.0 °F 13.9 °F 21.2 °F 93% 29.64 in 0.8 mi WNW 8.1 mph - 0.00 in Snow Light Snow
2:10 AM 23.0 °F 15.8 °F 21.2 °F 93% 29.64 in 0.5 mi WNW 5.8 mph - 0.01 in Fog , Snow Snow
2:26 AM 23.0 °F 14.7 °F 21.2 °F 93% 29.64 in 1.2 mi West 6.9 mph - 0.02 in Snow Light Snow
2:37 AM 23.0 °F 13.9 °F 21.2 °F 93% 29.64 in 0.5 mi West 8.1 mph - 0.03 in Fog , Snow Snow
2:42 AM 23.0 °F 15.8 °F 21.2 °F 93% 29.64 in 0.8 mi West 5.8 mph - 0.03 in Snow Light Snow
2:46 AM 23.0 °F 14.7 °F 21.2 °F 93% 29.65 in 2.0 mi West 6.9 mph - 0.03 in Snow Light Snow
2:54 AM 23.0 °F 15.8 °F 21.0 °F 92% 29.74 in 2.5 mi West 5.8 mph - 0.03 in Snow Light Snow
2:58 AM 23.0 °F 15.8 °F 21.2 °F 93% 29.65 in 3.0 mi West 5.8 mph - 0.00 in Snow Light Snow
3:28 AM 23.0 °F 13.9 °F 21.2 °F 93% 29.66 in 10.0 mi WNW 8.1 mph - 0.00 in   Overcast
3:54 AM 21.9 °F 14.5 °F 21.0 °F 96% 29.76 in 10.0 mi NW 5.8 mph - 0.00 in   Overcast
4:47 AM 21.2 °F 16.4 °F 19.4 °F 93% 29.68 in 10.0 mi West 3.5 mph - N/A   Overcast
5:32 AM 17.6 °F 2.7 °F 14.0 °F 86% 29.72 in 10.0 mi NW 16.1 mph 19.6 mph N/A   Overcast
5:54 AM 16.0 °F 4.4 °F 12.9 °F 88% 29.89 in 10.0 mi NNW 9.2 mph - N/A   Overcast
6:14 AM 14.0 °F -3.0 °F 12.2 °F 93% 29.75 in 6.0 mi WNW 18.4 mph 21.9 mph 0.00 in Snow Light Snow
6:27 AM 14.0 °F -1.4 °F 10.4 °F 86% 29.77 in 4.0 mi WNW 15.0 mph - 0.00 in Snow Light Snow
6:31 AM 14.0 °F -0.8 °F 10.4 °F 86% 29.77 in 3.0 mi WNW 13.8 mph - 0.00 in Snow Light Snow
6:41 AM 12.2 °F -4.3 °F 10.4 °F 92% 29.78 in 4.0 mi WNW 16.1 mph 20.7 mph 0.00 in Snow Light Snow
6:54 AM 12.9 °F -5.3 °F 10.0 °F 88% 29.94 in 3.0 mi WNW 20.7 mph 26.5 mph 0.00 in Snow Light Snow
7:34 AM 12.2 °F -5.8 °F 8.6 °F 85% 29.82 in 3.0 mi WNW 19.6 mph - 0.00 in Snow Light Snow
7:46 AM 12.2 °F -4.8 °F 8.6 °F 85% 29.82 in 5.0 mi WNW 17.3 mph - 0.00 in Snow Light Snow
8:08 AM 12.2 °F -4.8 °F 8.6 °F 85% 29.84 in 1.8 mi WNW 17.3 mph 25.3 mph 0.00 in Snow Light Snow
8:10 AM 10.4 °F -6.6 °F 8.6 °F 92% 29.84 in 2.0 mi WNW 16.1 mph 25.3 mph 0.00 in Snow Light Snow
8:21 AM 10.4 °F -7.2 °F 8.6 °F 92% 29.85 in 1.2 mi WNW 17.3 mph 24.2 mph 0.00 in Snow Light Snow
8:46 AM 10.4 °F -7.2 °F 6.8 °F 85% 29.87 in 0.5 mi NNW 17.3 mph 24.2 mph 0.00 in Fog , Snow Snow
8:54 AM 9.0 °F -9.0 °F 5.0 °F 84% 30.05 in 0.2 mi NW 17.3 mph 29.9 mph 0.00 in Fog , Snow Snow
9:19 AM 8.6 °F -4.7 °F 5.0 °F 85% 29.92 in 0.5 mi NW 9.2 mph 17.3 mph 0.00 in Fog , Snow Snow
9:38 AM 8.6 °F -8.3 °F 3.2 °F 79% 29.94 in 0.2 mi NW 15.0 mph 19.6 mph 0.00 in Fog , Snow Snow
9:52 AM 6.8 °F -12.9 °F 3.2 °F 85% 29.95 in 0.2 mi WNW 19.6 mph 26.5 mph 0.00 in Fog , Snow Snow
9:54 AM 7.0 °F -13.6 °F 3.0 °F 84% 30.12 in 0.2 mi WNW 21.9 mph 29.9 mph 0.00 in Fog , Snow Snow
10:05 AM 6.8 °F -10.7 °F 3.2 °F 85% 29.96 in 0.5 mi NW 15.0 mph 28.8 mph 0.00 in Fog , Snow Snow
10:30 AM 6.8 °F -11.8 °F 1.4 °F 79% 29.98 in 0.5 mi NW 17.3 mph 29.9 mph 0.00 in Snow Snow
10:45 AM 5.0 °F -15.7 °F -0.4 °F 78% 30.00 in 0.2 mi WNW 20.7 mph 29.9 mph 0.00 in Snow Heavy Snow
10:54 AM 5.0 °F -15.7 °F -0.0 °F 80% 30.18 in 0.5 mi WNW 20.7 mph - 0.00 in Snow Snow
11:05 AM 3.2 °F -17.1 °F -0.4 °F 85% 30.02 in 0.5 mi WNW 18.4 mph 26.5 mph 0.00 in Snow Snow
11:32 AM 3.2 °F -14.6 °F -0.4 °F 85% 30.03 in 1.0 mi WNW 13.8 mph - 0.00 in Snow Light Snow
11:50 AM 3.2 °F -15.3 °F -0.4 °F 85% 30.04 in 0.8 mi WNW 15.0 mph 18.4 mph 0.00 in Snow Light Snow
11:54 AM 3.0 °F -17.3 °F -2.0 °F 80% 30.22 in 0.5 mi WNW 18.4 mph 25.3 mph 0.00 in Snow Snow
12:00 PM 3.2 °F -15.3 °F -2.2 °F 78% 30.05 in 0.2 mi NW 15.0 mph 25.3 mph 0.00 in Snow Heavy Snow
12:10 PM 1.4 °F -17.6 °F -2.2 °F 85% 30.06 in 0.5 mi NW 15.0 mph 23.0 mph 0.00 in Snow Snow
12:40 PM 1.4 °F -15.3 °F -5.8 °F 72% 30.07 in 1.2 mi NW 11.5 mph 17.3 mph 0.00 in Snow Light Snow
12:49 PM 1.4 °F -15.3 °F -5.8 °F 72% 30.07 in 3.0 mi WNW 11.5 mph - 0.00 in Snow Light Snow
12:50 PM 1.0 °F -16.6 °F -5.1 °F 75% 30.25 in 3.0 mi WNW 12.7 mph - 0.00 in Snow Light Snow
1:54 PM -0.0 °F -18.0 °F -5.1 °F 79% 30.29 in 6.0 mi West 12.7 mph 16.1 mph 0.00 in   Haze
2:54 PM -0.0 °F -16.3 °F -5.1 °F 79% 30.30 in 5.0 mi West 10.4 mph - N/A   Haze
3:04 PM -0.4 °F -13.4 °F -5.8 °F 78% 30.10 in 5.0 mi WNW 6.9 mph - N/A   Haze
3:54 PM -0.0 °F -15.3 °F -5.1 °F 79% 30.32 in 10.0 mi West 9.2 mph - N/A   Overcast
4:12 PM -0.4 °F -14.7 °F -4.0 °F 85% 30.12 in 8.0 mi West 8.1 mph - N/A   Overcast
4:54 PM -2.0 °F -13.9 °F -6.0 °F 83% 30.32 in 9.0 mi WSW 5.8 mph - N/A   Mostly Cloudy
5:52 PM -4.0 °F -14.6 °F -7.6 °F 85% 30.09 in 10.0 mi WSW 4.6 mph - N/A   Scattered Clouds
5:54 PM -4.0 °F -14.6 °F -7.1 °F 87% 30.33 in 10.0 mi WSW 4.6 mph - N/A   Partly Cloudy
6:54 PM -6.0 °F -14.7 °F -9.9 °F 83% 30.31 in 10.0 mi South 3.5 mph - N/A   Clear
7:54 PM -6.0 °F -20.1 °F -9.9 °F 83% 30.28 in 10.0 mi ESE 6.9 mph - N/A   Clear
8:54 PM -2.9 °F -15.0 °F -7.1 °F 82% 30.25 in 10.0 mi SE 5.8 mph - N/A   Clear
9:54 PM -4.0 °F -14.6 °F -9.0 °F 79% 30.21 in 10.0 mi ESE 4.6 mph - N/A   Mostly Cloudy
10:54 PM -4.0 °F -17.8 °F -9.0 °F 79% 30.16 in 10.0 mi SE 6.9 mph - N/A   Clear
11:54 PM 1.0 °F -14.0 °F -5.1 °F 75% 30.10 in 10.0 mi ESE 9.2 mph - N/A   Overcast